CW4541 Weather Reports


Display with metric or nautical units.
time (UTC)temp
F
wind
direction
speed
MPH
gust
MPH
rain 1hr
in
rain 24hr
in
rain mn
in
humidity
%
barometer
mb
20220122050605 22 36 0.0 0.0 0.00 0.06 0.06 81 1037.2
20220122050120 22 36 0.0 0.0 0.00 0.06 0.06 81 1037.2
20220122040605 24 355 0.0 0.0 0.00 0.06 0.06 81 1037.0
20220122040116 24 355 0.0 0.0 0.00 0.06 0.06 81 1037.1
20220122030605 24 355 0.0 0.0 0.00 0.06 0.06 81 1037.1
20220122030120 24 355 0.0 0.0 0.00 0.06 0.06 81 1037.1
20220122020605 25 355 0.0 0.0 0.00 0.06 0.06 81 1036.9
20220122020116 25 355 0.0 0.0 0.00 0.06 0.06 80 1036.9
20220122010605 25 357 0.0 0.0 0.00 0.06 0.06 79 1036.5
20220122010116 25 350 0.0 0.0 0.00 0.06 0.06 79 1036.5
20220122000605 26 338 0.0 0.0 0.00 0.06 0.06 78 1035.9
20220122000116 27 350 0.0 0.0 0.00 0.06 0.06 77 1035.9
20220121230605 28 24 0.0 0.0 0.00 0.06 0.06 70 1035.4
20220121230117 28 37 0.0 0.0 0.00 0.06 0.06 69 1035.2
20220121220604 30 81 1.0 5.0 0.01 0.06 0.06 69 1034.4
20220121220117 30 79 0.0 3.0 0.01 0.06 0.06 69 1034.5
20220121210605 28 55 0.0 3.0 0.01 0.05 0.05 75 1034.6
20220121210117 28 41 0.0 5.0 0.01 0.05 0.05 74 1034.5
20220121200605 29 44 1.0 5.0 0.04 0.04 0.04 73 1035.4
20220121200117 29 43 1.0 5.0 0.04 0.04 0.04 74 1035.3
20220121190604 29 307 0.0 0.0 0.00 0.00 0.00 73 1035.9
20220121190117 29 307 0.0 0.0 0.00 0.00 0.00 74 1035.9
20220121180605 27 306 0.0 0.0 0.00 0.00 0.00 75 1036.5
20220121180117 27 306 0.0 0.0 0.00 0.00 0.00 75 1036.5
20220121170605 26 306 0.0 0.0 0.00 0.00 0.00 69 1036.6
20220121170117 26 305 0.0 0.0 0.00 0.00 0.00 69 1036.5
20220121160605 27 205 0.0 0.0 0.00 0.00 0.00 48 1036.1
20220121160117 27 190 0.0 0.0 0.00 0.00 0.00 48 1036.0
20220121150605 27 190 0.0 0.0 0.00 0.00 0.00 48 1035.3
20220121150116 26 190 0.0 0.0 0.00 0.00 0.00 48 1035.3
20220121140605 26 191 0.0 2.0 0.00 0.00 0.00 49 1034.9
20220121140116 26 191 0.0 3.0 0.00 0.00 0.00 49 1034.8
20220121130605 26 187 0.0 5.0 0.00 0.00 0.00 49 1034.9
20220121130117 26 184 1.0 5.0 0.00 0.00 0.00 49 1035.0
20220121120605 25 192 0.0 0.0 0.00 0.00 0.00 52 1036.0
20220121120116 25 192 0.0 0.0 0.00 0.00 0.00 52 1036.1
20220121110605 23 345 0.0 0.0 0.00 0.00 0.00 55 1036.5
20220121110116 23 344 0.0 0.0 0.00 0.00 0.00 55 1036.6
20220121100605 23 344 0.0 0.0 0.00 0.00 0.00 51 1037.3
20220121100116 23 344 0.0 0.0 0.00 0.00 0.00 52 1037.4
20220121090605 23 344 0.0 0.0 0.00 0.00 0.00 51 1038.1
20220121090116 22 344 0.0 0.0 0.00 0.00 0.00 51 1038.1
20220121080604 21 343 0.0 0.0 0.00 0.00 0.00 52 1038.3
20220121080116 21 343 0.0 0.0 0.00 0.00 0.00 53 1038.3
20220121070605 19 342 0.0 0.0 0.00 0.00 0.00 58 1039.1
20220121070119 19 342 0.0 0.0 0.00 0.00 0.00 60 1039.2
20220121060605 19 342 0.0 0.0 0.00 0.00 0.00 64 1040.3
20220121060116 19 342 0.0 0.0 0.00 0.00 0.00 63 1040.4